DW0805 Weather Reports


time (UTC)temp
C
wind
direction
speed
KPH
gust
KPH
rain 1hr
cm
rain 24hr
cm
rain mn
cm
humidity
%
barometer
mb
20260506113514 16 0 8.0 16.1 0.00 0.00 0.00 53 1010.4
20260506112513 15 358 4.8 16.1 0.00 0.00 0.00 55 1010.5
20260506110512 15 18 4.8 19.3 0.00 0.00 0.00 55 1010.6
20260506104512 15 60 8.0 14.5 0.00 0.00 0.00 53 1010.6
20260506103513 14 33 8.0 19.3 0.00 0.00 0.00 55 1010.6
20260506102513 15 25 8.0 19.3 0.00 0.00 0.00 54 1010.7
20260506100512 15 8 8.0 16.1 0.00 0.00 0.00 55 1010.8
20260506095513 14 351 8.0 16.1 0.00 0.00 0.00 57 1010.7
20260506094512 14 20 4.8 14.5 0.00 0.00 0.00 58 1010.8
20260506092513 13 5 6.4 16.1 0.00 0.00 0.00 53 1010.8
20260506091513 15 333 8.0 14.5 0.00 0.00 0.00 51 1010.8
20260506090512 15 347 4.8 14.5 0.00 0.00 0.00 51 1010.7
20260506085512 15 27 9.7 20.9 0.00 0.00 0.00 49 1010.7
20260506084513 15 18 8.0 14.5 0.00 0.00 0.00 45 1010.7
20260506083512 15 19 6.4 14.5 0.00 0.00 0.00 48 1010.7
20260506081513 15 42 4.8 14.5 0.00 0.00 0.00 46 1010.6
20260506073513 13 41 6.4 19.3 0.00 0.00 0.00 48 1010.7
20260506070512 13 18 4.8 12.9 0.00 0.00 0.00 50 1010.7
20260506061513 11 38 4.8 12.9 0.00 0.00 0.00 56 1010.9
20260506060512 11 57 8.0 19.3 0.00 0.00 0.00 54 1011.0
20260506044512 7 24 3.2 9.7 0.00 0.00 0.00 74 1011.0
20260506043513 6 19 1.6 4.8 0.00 0.00 0.00 79 1011.0
20260506041513 3 25 0.0 0.0 0.00 0.00 0.00 79 1011.0
20260506040513 3 29 0.0 1.6 0.00 0.00 0.00 77 1010.9
20260506035513 3 30 0.0 1.6 0.00 0.00 0.00 76 1010.8
20260506034513 3 30 0.0 3.2 0.00 0.00 0.00 75 1010.9
20260506033512 3 30 0.0 4.8 0.00 0.00 0.00 74 1011.0
20260506032513 3 38 3.2 4.8 0.00 0.00 0.00 74 1011.0
20260506031512 3 20 0.0 4.8 0.00 0.00 0.00 73 1011.0
20260506030513 4 10 1.6 4.8 0.00 0.00 0.00 71 1011.1
20260506023512 5 42 3.2 9.7 0.00 0.00 0.00 71 1011.2
20260506022513 5 31 1.6 8.0 0.00 0.00 0.00 72 1011.3
20260506020513 6 55 0.0 4.8 0.00 0.00 0.00 68 1011.4
20260506015513 6 53 1.6 9.7 0.00 0.00 0.00 66 1011.5
20260506003513 6 20 3.2 11.3 0.00 0.00 0.00 75 1011.0
20260506000512 6 44 4.8 11.3 0.00 0.00 0.00 79 1010.9
20260505235513 6 33 4.8 9.7 0.00 0.00 0.00 81 1011.0
20260505232512 5 33 3.2 11.3 0.00 0.00 0.00 86 1011.0
20260505231513 5 28 1.6 8.0 0.00 0.00 0.00 87 1011.0
20260505230512 5 3 1.6 4.8 0.00 0.00 0.00 87 1011.1
20260505225512 5 22 1.6 4.8 0.00 0.00 0.00 87 1011.1
20260505221509 5 5 1.6 8.0 0.00 0.00 0.00 88 1011.2
20260505214514 4 9 1.6 4.8 0.00 0.00 0.00 88 1011.3
20260505213512 4 5 1.6 4.8 0.00 0.00 0.00 87 1011.3
20260505210513 4 349 1.6 3.2 0.00 0.00 0.00 84 1011.5
20260505205512 5 349 1.6 3.2 0.00 0.00 0.00 83 1011.4
20260505203513 5 349 0.0 3.2 0.00 0.00 0.00 82 1011.4
20260505201513 6 349 0.0 1.6 0.00 0.00 0.00 80 1011.4
20260505195513 6 349 0.0 3.2 0.00 0.00 0.00 78 1011.5
20260505194513 6 349 1.6 8.0 0.00 0.00 0.00 76 1011.5
20260505190513 8 355 0.0 1.6 0.00 0.00 0.00 70 1011.4
20260505183513 9 350 1.6 8.0 0.00 0.00 0.00 65 1011.1
20260505182513 10 355 3.2 8.0 0.00 0.00 0.00 63 1011.1
20260505174513 11 18 4.8 12.9 0.00 0.00 0.00 53 1011.1
20260505172513 11 356 6.4 14.5 0.00 0.00 0.00 54 1011.1
20260505171514 12 15 4.8 14.5 0.00 0.00 0.00 53 1011.2
20260505161513 12 23 8.0 16.1 0.00 0.00 0.00 57 1011.2
20260505160513 13 7 9.7 19.3 0.00 0.00 0.00 58 1011.3
20260505152514 13 0 9.7 20.9 0.00 0.00 0.00 56 1011.4
20260505140513 13 346 9.7 24.1 0.00 0.00 0.00 62 1011.4
20260505124514 13 331 9.7 16.1 0.00 0.00 0.00 61 1011.5
20260505120513 13 303 9.7 22.5 0.00 0.00 0.00 65 1011.6
20260505115513 13 331 11.3 20.9 0.00 0.00 0.00 63 1011.6
20260505114513 13 350 9.7 19.3 0.00 0.00 0.00 65 1011.7